Regional Weather Roundup
Issued by NWS Charleston, SC

Current Version | Previous Version | Graphics & Text | Print | Product List | Glossary On
Versions: 1 2 3 4 5 6 7 8 9 10 11 12 13 14 15 16 17 18 19 20 21 22 23 24 25 26 27 28 29 30 31 32 33 34 35 36 37 38 39 40 41 42 43 44 45 46 47 48 49 50
747 ASUS42 KCHS 260013 RWRCHS REGIONAL WEATHER ROUNDUP NATIONAL WEATHER SERVICE CHARLESTON SC 800 PM EDT MON JUL 25 2016 NOTE: "FAIR" INDICATES FEW OR NO CLOUDS BELOW 12,000 FEET WITH NO SIGNIFICANT WEATHER AND/OR OBSTRUCTIONS TO VISIBILITY. NOT ALL STATIONS ARE QUALITY CONTROLLED. USE DATA WITH CAUTION... ESPECIALLY DEWPOINT OBSERVATIONS. SCZ027-030-031-034>040-042>050-260100- ...SOUTHEAST SOUTH CAROLINA... CITY SKY/WX TMP DP RH WIND PRES REMARKS N CHARLESTON PTCLDY 85 72 65 S14 30.02R HX 91 6HR MIN TEMP: 85; 6HR MAX TEMP: 93; WATERFRONT PRK N/A 85 75 71 S13 30.00S HX 93 MOUNT PLEASANT FAIR 84 73 70 S5 30.03R HX 91 JOHNS ISLAND FAIR 84 73 70 S10 30.03S HX 91 PINOPOLIS N/A 88 72 58 SW7 29.94R HX 94 MONCKS CORNER FAIR 82 68 61 SW7 30.02R SUMMERVILLE FAIR 86 72 62 S6 30.03R HX 92 BEAUFORT MCAS CLEAR 86 73 65 S6 30.02R HX 93 6HR MIN TEMP: 86; 6HR MAX TEMP: 94; BEAUFORT ARPT NOT AVBL HILTON HEAD IS PTCLDY 88 75 66 S7G14 30.03S HX 97 WALTERBORO CLEAR 88 70 55 S7 30.03R HX 92 ALLENDALE FAIR 88 68 51 S8 30.00R HX 91 ...SOUTHERN MIDLANDS AND PEE DEE... CITY SKY/WX TMP DP RH WIND PRES REMARKS GEORGETOWN FAIR 82 72 69 S8 30.04R KINGSTREE FAIR 86 70 58 SE7 30.00R HX 90 ORANGEBURG CLEAR 89 71 55 S12 30.00R HX 95 6HR MIN TEMP: 89; 6HR MAX TEMP: 96; BARNWELL NOT AVBL AIKEN FAIR 88 68 51 S8 30.03R HX 91 MANNING FAIR 86 70 58 S6 30.00R HX 90 COLUMBIA CLEAR 93 68 43 S12 29.97R HX 97 6HR MIN TEMP: 93; 6HR MAX TEMP: 98; SUMTER CLEAR 90 71 53 SE8 29.96R HX 96 6HR MIN TEMP: 90; 6HR MAX TEMP: 96; FLORENCE CLEAR 89 75 63 S7 29.99R HX 99 6HR MIN TEMP: 89; 6HR MAX TEMP: 95; MYRTLE BEACH CLEAR 86 70 58 S17 30.03 HX 90 N MYRTLE BEACH CLEAR 83 74 74 SW15 30.02R 6HR MIN TEMP: 81; 6HR MAX TEMP: 89; $$ GAZ063-065-086>088-099>101-113>116-118-119-134>141-150-260100- ...SOUTHEAST GEORGIA... CITY SKY/WX TMP DP RH WIND PRES REMARKS SAVANNAH ARPT PTCLDY 86 70 58 S14 30.01S HX 90 6HR MIN TEMP: 86; 6HR MAX TEMP: 94; HUNTER AAF CLEAR 85 76 75 S8 29.99S HX 94 6HR MIN TEMP: 85; 6HR MAX TEMP: 91; FORT STEWART CLEAR 86 71 60 SE3 29.99R HX 91 6HR MIN TEMP: 86; 6HR MAX TEMP: 94; STATESBORO CLEAR 88 73 61 SE7 30.01R HX 96 SYLVANIA NOT AVBL CLAXTON FAIR 89 73 59 E5 30.00R HX 96 ...CSRA...CENTRAL AND FAR SOUTHEAST GEORGIA... CITY SKY/WX TMP DP RH WIND PRES REMARKS THOMSON NOT AVBL AUGUSTA-BUSH CLEAR 91 65 41 S10 29.97R HX 93 6HR MIN TEMP: 90; 6HR MAX TEMP: 99; AUGUSTA-DANIEL CLEAR 93 67 42 S9 29.99R HX 96 SWAINSBORO FAIR 91 68 46 SE9 30.00R HX 95 VIDALIA CLEAR 91 63 38 S7 29.99S HX 92 EASTMAN FAIR 92 50 23 S5 30.00S HAZLEHURST FAIR 93 65 39 CALM 29.98S HX 94 ALMA CLEAR 90 66 45 S6 29.99S HX 92 6HR MIN TEMP: 90; 6HR MAX TEMP: 95; WAYCROSS CLEAR 92 74 54 SE9 30.00S HX 102 JESUP FAIR 88 75 66 S7 30.01S HX 97 BAXLEY FAIR 90 75 62 SE6 29.99S HX 100 BRUNSWICK CLEAR 86 73 66 SE10G16 30.03S HX 93 SAINT SIMONS CLEAR 85 70 60 SE9G20 30.03R 6HR MIN TEMP: 85; 6HR MAX TEMP: 91; $$ SCZ027-028-034-036>038-045-046-048>050-GAZ119-141-260100- ...LAKE AND SUPPLEMENTAL COASTAL OBSERVATIONS... STATION/POSITION TIME TEMP WIND PRES WAVE SWELL AIR SEA DIR/SP/G HT/PER HT/PER/DIR (UTC) (F) (DEG/KT/KT) (MB) (FT/S) (FT/S/D) WINYAH BAY NOT AVBL LAKE MURRAY NOT AVBL ACE BASIN NERRS NOT AVBL FORT PULASKI 2300 85 88 N/A SAPELO ISLAND 2300 88 150/ 10 1016.0F $$ ANZ835-935-AMZ111-154-330-350-352-354-370-450-454-472-260100- ...C-MAN AND BUOY OBSERVATIONS... STATION/POSITION TIME TEMP WIND PRES WAVE SWELL AIR SEA DIR/SP/G HT/PER HT/PER/DIR (UTC) (F) (DEG/KT/KT) (MB) (FT/S) (FT/S/D) BUOY 41004 2350 85 86 190/ 12/ 14 1016.6R 2/ 8 2/130/ 8 BUOY 41008 2350 85 87 150/ 12/ 14 1016.8S 2/ 8 2/ 90/ 8 FOLLY BEACH CMAN 0000 85 190/ 12/ 14 1017.2R CAPERS NEARSHORE 2308 85 85 210/ 14/ 17 1016.5F FRIPP NEARSHORE 2308 85 88 190/ 14/ 17 1016.0S STATION/POSITION TIME TEMP WIND PRES WAVE SWELL AIR SEA DIR/SP/G HT/PER HT/PER/DIR (UTC) (F) (DEG/KT/KT) (MB) (FT/S) (FT/S/D) 5E ST. MARYS GA 2301 86 N/A 2/ 3 FRYING PAN BUOY 2300 85 86 190/ 14/ 16 1016.5S BUOY 41025 2250 85 86 220/ 17/ 21 1015.6 4/ 5 2/120/ 8 CAPE LOOKOUT NC 0000 84 220/ 10/ 15 1016.1R BUOY 41002 2350 84 85 170/ 10/ 12 1018.3R 2/ 8 2/110/ 8 BUOY 41010 2320 85 87 150/ 8/ 10 1018.0R ST AUGUSTINE FL 0000 83 87 150/ 15/ 16 1017.9R $$

USA.gov is the U.S. government's official web portal to all federal, state and local government web resources and services.